SNJ77 RJTT-RJFK

Flight info

Callsign SNJ77
Flight time 1h 39m
Altitude 36000
Route LAXAS Y56 TOHME Y54 TURFY Y24 SUC Y757 SPICA
Aircraft B738/M-SABDFGRVYL/LB2

Departure

Time 2026-05-08 11:52
Airport Tokyo Haneda International Airport (RJTT)

Arrival

Time 2026-05-08 13:31
Airport Kagoshima Airport (RJFK)
Time Latitude Longitude Altitude Speed Heading
2026-05-08 11:21 35.55514 139.78674 27 ft 0 kts 150°
2026-05-08 11:38 35.55519 139.78671 27 ft 2 kts 150°
2026-05-08 11:39 35.55533 139.78662 27 ft 2 kts 148°
2026-05-08 11:39 35.55545 139.78653 27 ft 2 kts 149°
2026-05-08 11:39 35.55563 139.78641 27 ft 2 kts 149°
2026-05-08 11:39 35.55572 139.78635 27 ft 2 kts 149°
2026-05-08 11:40 35.55586 139.78632 26 ft 2 kts 196°
2026-05-08 11:40 35.55602 139.78647 26 ft 2 kts 246°
2026-05-08 11:40 35.55604 139.78653 26 ft 0 kts 246°
2026-05-08 11:40 35.55611 139.78667 25 ft 2 kts 225°
2026-05-08 11:41 35.55622 139.78677 25 ft 2 kts 211°
2026-05-08 11:41 35.55636 139.78685 24 ft 2 kts 195°
2026-05-08 11:41 35.55651 139.78688 24 ft 2 kts 180°
2026-05-08 11:41 35.55666 139.78687 23 ft 2 kts 164°
2026-05-08 11:42 35.55676 139.78682 23 ft 0 kts 153°
2026-05-08 11:42 35.55684 139.78677 23 ft 0 kts 151°
2026-05-08 11:44 35.55682 139.78679 23 ft 1 kts 151°
2026-05-08 11:44 35.55654 139.78723 22 ft 9 kts 106°
2026-05-08 11:45 35.55693 139.78844 17 ft 12 kts 52°
2026-05-08 11:45 35.55772 139.78851 15 ft 12 kts 332°
2026-05-08 11:45 35.55821 139.78818 15 ft 11 kts 330°
2026-05-08 11:45 35.55886 139.78770 15 ft 10 kts 330°
2026-05-08 11:46 35.55946 139.78728 14 ft 9 kts 329°
2026-05-08 11:46 35.56016 139.78679 14 ft 11 kts 330°
2026-05-08 11:46 35.56084 139.78632 14 ft 10 kts 329°
2026-05-08 11:46 35.56166 139.78572 13 ft 9 kts 329°
2026-05-08 11:47 35.56210 139.78542 13 ft 13 kts 330°
2026-05-08 11:47 35.56296 139.78481 12 ft 13 kts 331°
2026-05-08 11:47 35.56343 139.78400 13 ft 10 kts 262°
2026-05-08 11:47 35.56309 139.78316 16 ft 4 kts 239°
2026-05-08 11:48 35.56301 139.78297 17 ft 3 kts 239°
2026-05-08 11:48 35.56262 139.78217 21 ft 9 kts 239°
2026-05-08 11:48 35.56242 139.78175 23 ft 8 kts 240°
2026-05-08 11:48 35.56206 139.78099 23 ft 12 kts 239°
2026-05-08 11:49 35.56154 139.77988 24 ft 16 kts 240°
2026-05-08 11:49 35.56101 139.77876 25 ft 14 kts 241°
2026-05-08 11:49 35.56038 139.77742 25 ft 13 kts 241°
2026-05-08 11:49 35.56004 139.77672 24 ft 15 kts 239°
2026-05-08 11:50 35.55934 139.77525 26 ft 13 kts 239°
2026-05-08 11:50 35.55902 139.77460 26 ft 12 kts 240°
2026-05-08 11:50 35.55859 139.77371 27 ft 11 kts 239°
2026-05-08 11:50 35.55809 139.77310 27 ft 9 kts 215°
2026-05-08 11:51 35.55759 139.77266 27 ft 9 kts 214°
2026-05-08 11:51 35.55700 139.77216 28 ft 11 kts 215°
2026-05-08 11:51 35.55620 139.77176 28 ft 14 kts 161°
2026-05-08 11:51 35.55582 139.77200 28 ft 0 kts 150°
2026-05-08 11:52 35.55503 139.77254 29 ft 46 kts 152°
2026-05-08 11:52 35.55193 139.77466 28 ft 104 kts 152°
2026-05-08 11:52 35.54345 139.78073 46 ft 174 kts 153°
2026-05-08 11:52 35.53283 139.78954 788 ft 187 kts 154°
2026-05-08 11:53 35.52214 139.79719 1840 ft 183 kts 160°
2026-05-08 11:53 35.50997 139.80478 2350 ft 205 kts 159°
2026-05-08 11:53 35.49661 139.81367 2883 ft 228 kts 156°
2026-05-08 11:53 35.48212 139.82391 3461 ft 248 kts 155°
2026-05-08 11:54 35.46656 139.83505 4178 ft 263 kts 155°
2026-05-08 11:54 35.45003 139.84517 4900 ft 272 kts 166°
2026-05-08 11:54 35.43167 139.84808 5785 ft 265 kts 193°
2026-05-08 11:54 35.41459 139.84149 6894 ft 253 kts 211°
2026-05-08 11:55 35.39459 139.82593 8133 ft 255 kts 221°
2026-05-08 11:55 35.38557 139.81722 8802 ft 254 kts 223°
2026-05-08 11:55 35.37172 139.80342 9708 ft 256 kts 223°
2026-05-08 11:55 35.35775 139.78966 10585 ft 259 kts 223°
2026-05-08 11:56 35.34318 139.77553 11142 ft 274 kts 221°
2026-05-08 11:56 35.32774 139.76068 11688 ft 288 kts 222°
2026-05-08 11:56 35.31166 139.74522 12172 ft 303 kts 222°
2026-05-08 11:56 35.29490 139.72841 12753 ft 313 kts 224°
2026-05-08 11:57 35.27828 139.71101 13541 ft 316 kts 224°
2026-05-08 11:57 35.26184 139.69365 14351 ft 318 kts 225°
2026-05-08 11:57 35.24497 139.67583 15091 ft 321 kts 224°
2026-05-08 11:57 35.22780 139.65779 15824 ft 324 kts 225°
2026-05-08 11:58 35.21066 139.63989 16545 ft 327 kts 225°
2026-05-08 11:58 35.19331 139.62180 17235 ft 329 kts 225°
2026-05-08 11:58 35.17588 139.60362 17858 ft 333 kts 225°
2026-05-08 11:59 35.14036 139.56673 19219 ft 336 kts 225°
2026-05-08 11:59 35.12248 139.54819 19874 ft 338 kts 225°
2026-05-08 11:59 35.10473 139.52920 20577 ft 336 kts 227°
2026-05-08 11:59 35.08867 139.50760 21140 ft 336 kts 236°
2026-05-08 12:00 35.07669 139.48323 21752 ft 336 kts 244°
2026-05-08 12:00 35.06798 139.45648 22271 ft 339 kts 250°
2026-05-08 12:00 35.06177 139.42870 22828 ft 342 kts 255°
2026-05-08 12:00 35.05675 139.39996 23321 ft 346 kts 256°
2026-05-08 12:01 35.05205 139.37076 23850 ft 348 kts 256°
2026-05-08 12:01 35.04742 139.34172 24407 ft 349 kts 256°
2026-05-08 12:01 35.04276 139.31264 24930 ft 352 kts 255°
2026-05-08 12:01 35.03795 139.28297 25496 ft 353 kts 255°
2026-05-08 12:02 35.03313 139.25366 26059 ft 353 kts 255°
2026-05-08 12:02 35.02821 139.22397 26451 ft 358 kts 256°
2026-05-08 12:02 35.02330 139.19455 27000 ft 358 kts 256°
2026-05-08 12:02 35.01828 139.16454 27485 ft 360 kts 256°
2026-05-08 12:03 35.01332 139.13500 27966 ft 361 kts 255°
2026-05-08 12:03 35.00816 139.10452 28435 ft 362 kts 255°
2026-05-08 12:03 35.00302 139.07413 28862 ft 365 kts 256°
2026-05-08 12:03 34.99787 139.04379 29368 ft 365 kts 255°
2026-05-08 12:04 34.99263 139.01298 29727 ft 369 kts 255°
2026-05-08 12:04 34.98786 138.98212 30091 ft 373 kts 257°
2026-05-08 12:04 34.98488 138.95068 30577 ft 374 kts 260°
2026-05-08 12:04 34.98302 138.91907 30987 ft 376 kts 261°
2026-05-08 12:05 34.98159 138.88713 31270 ft 381 kts 262°
2026-05-08 12:05 34.98022 138.85465 31740 ft 380 kts 262°
2026-05-08 12:05 34.97884 138.82231 32348 ft 377 kts 261°
2026-05-08 12:05 34.97745 138.79088 33008 ft 371 kts 262°
2026-05-08 12:06 34.97601 138.75998 33593 ft 367 kts 261°
2026-05-08 12:06 34.97449 138.72910 34032 ft 367 kts 261°
2026-05-08 12:06 34.97289 138.69818 34486 ft 365 kts 261°
2026-05-08 12:06 34.97124 138.66716 35007 ft 362 kts 261°
2026-05-08 12:07 34.96963 138.63718 35439 ft 360 kts 260°
2026-05-08 12:07 34.96798 138.60690 35739 ft 360 kts 261°
2026-05-08 12:07 34.96459 138.54553 35745 ft 360 kts 260°
2026-05-08 12:08 34.96127 138.48541 35748 ft 357 kts 260°
2026-05-08 12:08 34.95784 138.42487 35758 ft 360 kts 261°
2026-05-08 12:09 34.95449 138.36458 35771 ft 358 kts 261°
2026-05-08 12:09 34.95112 138.30543 35780 ft 357 kts 260°
2026-05-08 12:10 34.94764 138.24490 35783 ft 358 kts 261°
2026-05-08 12:10 34.94416 138.18451 35785 ft 357 kts 260°
2026-05-08 12:11 34.94069 138.12465 35793 ft 358 kts 261°
2026-05-08 12:11 34.93722 138.06569 35803 ft 357 kts 261°
2026-05-08 12:12 34.93375 138.00653 35814 ft 356 kts 261°
2026-05-08 12:12 34.93023 137.94659 35817 ft 355 kts 260°
2026-05-08 12:13 34.92667 137.88739 35835 ft 355 kts 261°
2026-05-08 12:13 34.92303 137.82735 35823 ft 355 kts 260°
2026-05-08 12:14 34.91940 137.76804 35845 ft 353 kts 260°
2026-05-08 12:14 34.91552 137.70874 35834 ft 352 kts 259°
2026-05-08 12:15 34.90640 137.65144 35835 ft 348 kts 251°
2026-05-08 12:15 34.89056 137.59611 35834 ft 347 kts 248°
2026-05-08 12:16 34.87388 137.54176 35845 ft 347 kts 249°
2026-05-08 12:16 34.85716 137.48700 35847 ft 348 kts 249°
2026-05-08 12:17 34.84104 137.43249 35852 ft 346 kts 249°
2026-05-08 12:17 34.82532 137.37733 35864 ft 347 kts 250°
2026-05-08 12:18 34.81020 137.32423 35847 ft 331 kts 249°
2026-05-08 12:18 34.80284 137.29835 35856 ft 319 kts 249°
2026-05-08 12:18 34.79570 137.27325 35858 ft 317 kts 249°
2026-05-08 12:19 34.78096 137.22205 35865 ft 324 kts 249°
2026-05-08 12:19 34.76605 137.17035 35871 ft 325 kts 248°
2026-05-08 12:20 34.75116 137.11877 35880 ft 322 kts 249°
2026-05-08 12:20 34.73628 137.06744 35881 ft 322 kts 249°
2026-05-08 12:21 34.72150 137.01630 35881 ft 323 kts 248°
2026-05-08 12:21 34.70536 136.96526 35898 ft 323 kts 244°
2026-05-08 12:22 34.68080 136.91931 35901 ft 327 kts 235°
2026-05-08 12:22 34.65252 136.87653 35908 ft 326 kts 234°
2026-05-08 12:23 34.62445 136.83375 35903 ft 325 kts 235°
2026-05-08 12:23 34.59631 136.79056 35912 ft 328 kts 235°
2026-05-08 12:24 34.56803 136.74699 35902 ft 328 kts 234°
2026-05-08 12:24 34.54012 136.70403 35904 ft 326 kts 235°
2026-05-08 12:25 34.51197 136.66071 35903 ft 331 kts 235°
2026-05-08 12:25 34.48352 136.61699 35906 ft 330 kts 234°
2026-05-08 12:26 34.45522 136.57349 35901 ft 330 kts 234°
2026-05-08 12:26 34.42686 136.53003 35905 ft 331 kts 234°
2026-05-08 12:27 34.39841 136.48653 35905 ft 330 kts 235°
2026-05-08 12:27 34.36985 136.44286 35903 ft 331 kts 234°
2026-05-08 12:28 34.34127 136.39914 35903 ft 333 kts 235°
2026-05-08 12:28 34.31276 136.35562 35909 ft 333 kts 234°
2026-05-08 12:29 34.28395 136.31172 35909 ft 332 kts 234°
2026-05-08 12:29 34.25536 136.26831 35911 ft 333 kts 234°
2026-05-08 12:30 34.22653 136.22452 35911 ft 335 kts 234°
2026-05-08 12:30 34.19762 136.18053 35903 ft 332 kts 233°
2026-05-08 12:31 34.16903 136.13716 35898 ft 337 kts 234°
2026-05-08 12:31 34.13991 136.09297 35894 ft 336 kts 233°
2026-05-08 12:32 34.11061 136.04869 35894 ft 336 kts 234°
2026-05-08 12:32 34.08161 136.00491 35895 ft 338 kts 234°
2026-05-08 12:33 34.05222 135.96062 35902 ft 336 kts 233°
2026-05-08 12:33 34.02306 135.91664 35915 ft 337 kts 234°
2026-05-08 12:34 33.99368 135.87241 35919 ft 338 kts 234°
2026-05-08 12:34 33.96426 135.82816 35920 ft 340 kts 233°
2026-05-08 12:35 33.93483 135.78401 35915 ft 338 kts 233°
2026-05-08 12:35 33.90558 135.74008 35922 ft 339 kts 233°
2026-05-08 12:36 33.87620 135.69609 35921 ft 340 kts 234°
2026-05-08 12:36 33.84654 135.65173 35926 ft 340 kts 234°
2026-05-08 12:37 33.81704 135.60770 35925 ft 339 kts 233°
2026-05-08 12:37 33.78762 135.56377 35928 ft 340 kts 234°
2026-05-08 12:38 33.75805 135.51967 35924 ft 338 kts 234°
2026-05-08 12:38 33.72865 135.47588 35918 ft 339 kts 234°
2026-05-08 12:39 33.69884 135.43161 35914 ft 340 kts 234°
2026-05-08 12:39 33.66926 135.38777 35912 ft 338 kts 234°
2026-05-08 12:40 33.63979 135.34401 35914 ft 340 kts 234°
2026-05-08 12:40 33.61023 135.30017 35915 ft 337 kts 234°
2026-05-08 12:41 33.58055 135.25624 35919 ft 339 kts 234°
2026-05-08 12:41 33.55076 135.21220 35921 ft 341 kts 233°
2026-05-08 12:42 33.52087 135.16814 35926 ft 339 kts 234°
2026-05-08 12:42 33.49106 135.12416 35927 ft 342 kts 234°
2026-05-08 12:43 33.46135 135.08041 35931 ft 340 kts 234°
2026-05-08 12:43 33.43147 135.03647 35937 ft 341 kts 234°
2026-05-08 12:44 33.40140 134.99216 36027 ft 344 kts 234°
2026-05-08 12:44 33.37154 134.94833 36052 ft 338 kts 233°
2026-05-08 12:45 33.34185 134.90479 36043 ft 340 kts 234°
2026-05-08 12:45 33.31208 134.86119 35975 ft 335 kts 234°
2026-05-08 12:46 33.28233 134.81757 35940 ft 341 kts 234°
2026-05-08 12:46 33.25230 134.77365 35947 ft 340 kts 234°
2026-05-08 12:47 33.22230 134.72981 35945 ft 342 kts 234°
2026-05-08 12:47 33.19234 134.68610 35949 ft 342 kts 234°
2026-05-08 12:48 33.16508 134.64002 35946 ft 340 kts 243°
2026-05-08 12:48 33.14823 134.58765 35952 ft 342 kts 251°
2026-05-08 12:49 33.13525 134.53374 35951 ft 340 kts 252°
2026-05-08 12:49 33.12232 134.47958 35952 ft 342 kts 253°
2026-05-08 12:50 33.10915 134.42531 35955 ft 341 kts 252°
2026-05-08 12:50 33.09590 134.37143 35948 ft 342 kts 253°
2026-05-08 12:51 33.07582 134.29018 35941 ft 342 kts 251°
2026-05-08 12:52 33.06241 134.23622 35945 ft 342 kts 252°
2026-05-08 12:52 33.04262 134.15469 35944 ft 342 kts 252°
2026-05-08 12:53 33.02949 134.10036 35945 ft 342 kts 252°
2026-05-08 12:53 33.01628 134.04597 35948 ft 342 kts 252°
2026-05-08 12:54 33.00315 133.99197 35947 ft 343 kts 253°
2026-05-08 12:54 32.98988 133.93750 35957 ft 343 kts 252°
2026-05-08 12:55 32.97656 133.88309 35951 ft 343 kts 253°
2026-05-08 12:55 32.96324 133.82869 35951 ft 343 kts 252°
2026-05-08 12:56 32.94995 133.77460 35968 ft 342 kts 252°
2026-05-08 12:56 32.93655 133.72017 35971 ft 343 kts 253°
2026-05-08 12:57 32.92315 133.66595 35982 ft 344 kts 252°
2026-05-08 12:57 32.90976 133.61166 35981 ft 344 kts 253°
2026-05-08 12:58 32.89636 133.55747 35981 ft 342 kts 253°
2026-05-08 12:58 32.88283 133.50299 35984 ft 344 kts 253°
2026-05-08 12:59 32.86945 133.44916 35992 ft 343 kts 253°
2026-05-08 12:59 32.85588 133.39464 35988 ft 342 kts 253°
2026-05-08 13:00 32.84269 133.34178 35995 ft 343 kts 252°
2026-05-08 13:00 32.82912 133.28760 35993 ft 341 kts 253°
2026-05-08 13:01 32.81561 133.23370 35995 ft 342 kts 253°
2026-05-08 13:01 32.80207 133.17966 36003 ft 342 kts 253°
2026-05-08 13:02 32.78846 133.12552 36013 ft 344 kts 253°
2026-05-08 13:02 32.77457 133.07050 36007 ft 356 kts 253°
2026-05-08 13:03 32.75951 133.01329 36007 ft 366 kts 251°
2026-05-08 13:03 32.73795 132.95908 36008 ft 366 kts 242°
2026-05-08 13:04 32.71132 132.90721 36014 ft 368 kts 240°
2026-05-08 13:04 32.68438 132.85568 36007 ft 368 kts 241°
2026-05-08 13:05 32.65774 132.80420 36010 ft 368 kts 241°
2026-05-08 13:05 32.63107 132.75233 36012 ft 369 kts 242°
2026-05-08 13:06 32.60464 132.70084 36004 ft 368 kts 241°
2026-05-08 13:06 32.57786 132.64867 36010 ft 369 kts 242°
2026-05-08 13:07 32.55132 132.59701 36007 ft 369 kts 241°
2026-05-08 13:07 32.52459 132.54511 36011 ft 370 kts 242°
2026-05-08 13:08 32.49780 132.49312 36011 ft 369 kts 242°
2026-05-08 13:08 32.47097 132.44119 35795 ft 367 kts 242°
2026-05-08 13:09 32.45787 132.41589 35302 ft 363 kts 241°
2026-05-08 13:09 32.44466 132.39035 34639 ft 363 kts 240°
2026-05-08 13:09 32.43164 132.36514 33951 ft 363 kts 240°
2026-05-08 13:09 32.41851 132.33975 33220 ft 364 kts 240°
2026-05-08 13:10 32.40535 132.31429 32446 ft 365 kts 240°
2026-05-08 13:10 32.39232 132.28911 31687 ft 366 kts 240°
2026-05-08 13:10 32.37917 132.26370 30896 ft 368 kts 240°
2026-05-08 13:10 32.36581 132.23793 30146 ft 370 kts 240°
2026-05-08 13:11 32.35229 132.21188 29557 ft 373 kts 240°
2026-05-08 13:11 32.33888 132.18604 28974 ft 374 kts 240°
2026-05-08 13:11 32.32521 132.15973 28571 ft 369 kts 240°
2026-05-08 13:11 32.31163 132.13367 27895 ft 367 kts 240°
2026-05-08 13:12 32.29824 132.10794 27225 ft 365 kts 240°
2026-05-08 13:12 32.28495 132.08244 26618 ft 361 kts 240°
2026-05-08 13:12 32.27174 132.05710 26010 ft 358 kts 241°
2026-05-08 13:12 32.25872 132.03214 25400 ft 355 kts 240°
2026-05-08 13:13 32.24568 132.00711 24763 ft 352 kts 241°
2026-05-08 13:13 32.23292 131.98265 24239 ft 347 kts 240°
2026-05-08 13:13 32.22010 131.95811 23600 ft 345 kts 241°
2026-05-08 13:13 32.20751 131.93405 23023 ft 342 kts 241°
2026-05-08 13:14 32.19492 131.91002 22485 ft 339 kts 242°
2026-05-08 13:14 32.18258 131.88646 21887 ft 338 kts 242°
2026-05-08 13:14 32.17013 131.86264 21160 ft 341 kts 242°
2026-05-08 13:14 32.15749 131.83849 20507 ft 341 kts 242°
2026-05-08 13:15 32.14488 131.81445 19947 ft 339 kts 242°
2026-05-08 13:15 32.13232 131.79051 19289 ft 340 kts 242°
2026-05-08 13:15 32.11980 131.76668 18619 ft 341 kts 242°
2026-05-08 13:15 32.10725 131.74275 18024 ft 340 kts 243°
2026-05-08 13:16 32.09484 131.71915 17418 ft 339 kts 242°
2026-05-08 13:16 32.08254 131.69577 16807 ft 338 kts 242°
2026-05-08 13:16 32.07008 131.67215 16209 ft 337 kts 242°
2026-05-08 13:16 32.05770 131.64864 15694 ft 333 kts 242°
2026-05-08 13:17 32.04528 131.62509 15099 ft 332 kts 242°
2026-05-08 13:17 32.03316 131.60210 14492 ft 331 kts 242°
2026-05-08 13:17 32.02113 131.57925 13952 ft 329 kts 242°
2026-05-08 13:17 32.00901 131.55629 13379 ft 326 kts 242°
2026-05-08 13:18 31.99708 131.53371 12782 ft 326 kts 242°
2026-05-08 13:18 31.98521 131.51125 12194 ft 326 kts 242°
2026-05-08 13:18 31.97326 131.48865 11642 ft 325 kts 242°
2026-05-08 13:18 31.96137 131.46620 11060 ft 325 kts 242°
2026-05-08 13:19 31.94948 131.44379 10800 ft 314 kts 242°
2026-05-08 13:19 31.93815 131.42252 10659 ft 301 kts 242°
2026-05-08 13:19 31.92737 131.40228 10575 ft 287 kts 242°
2026-05-08 13:19 31.91690 131.38263 10407 ft 280 kts 242°
2026-05-08 13:20 31.90663 131.36330 10165 ft 279 kts 242°
2026-05-08 13:20 31.89661 131.34445 10024 ft 277 kts 242°
2026-05-08 13:20 31.88610 131.32471 9973 ft 279 kts 242°
2026-05-08 13:20 31.87575 131.30533 9761 ft 280 kts 242°
2026-05-08 13:21 31.86544 131.28609 9527 ft 275 kts 242°
2026-05-08 13:21 31.85527 131.26712 9307 ft 273 kts 242°
2026-05-08 13:21 31.84525 131.24843 9072 ft 272 kts 242°
2026-05-08 13:21 31.83518 131.22966 8835 ft 272 kts 242°
2026-05-08 13:22 31.82504 131.21078 8590 ft 272 kts 242°
2026-05-08 13:22 31.81490 131.19194 8339 ft 272 kts 242°
2026-05-08 13:22 31.80479 131.17317 8105 ft 272 kts 242°
2026-05-08 13:22 31.79466 131.15439 7856 ft 271 kts 242°
2026-05-08 13:23 31.78459 131.13570 7614 ft 271 kts 242°
2026-05-08 13:23 31.77447 131.11690 7367 ft 271 kts 242°
2026-05-08 13:23 31.76448 131.09837 7173 ft 264 kts 242°
2026-05-08 13:23 31.75475 131.08034 6880 ft 261 kts 242°
2026-05-08 13:24 31.74506 131.06233 6522 ft 261 kts 242°
2026-05-08 13:24 31.73534 131.04421 6171 ft 260 kts 242°
2026-05-08 13:24 31.72579 131.02640 5836 ft 259 kts 242°
2026-05-08 13:24 31.71624 131.00861 5498 ft 258 kts 242°
2026-05-08 13:25 31.70662 130.99072 5156 ft 258 kts 242°
2026-05-08 13:25 31.69700 130.97286 4809 ft 257 kts 241°
2026-05-08 13:25 31.68755 130.95531 4474 ft 256 kts 242°
2026-05-08 13:25 31.67809 130.93776 4245 ft 251 kts 242°
2026-05-08 13:26 31.66974 130.92046 4144 ft 238 kts 251°
2026-05-08 13:26 31.66504 130.90233 4049 ft 224 kts 263°
2026-05-08 13:26 31.66224 130.88452 3983 ft 224 kts 265°
2026-05-08 13:26 31.66035 130.86661 3905 ft 214 kts 274°
2026-05-08 13:27 31.66255 130.85022 3838 ft 196 kts 293°
2026-05-08 13:27 31.66746 130.83578 3769 ft 185 kts 296°
2026-05-08 13:27 31.67222 130.82169 3670 ft 187 kts 295°
2026-05-08 13:27 31.67721 130.80771 3498 ft 179 kts 303°
2026-05-08 13:28 31.68554 130.79770 3272 ft 171 kts 331°
2026-05-08 13:28 31.69603 130.79137 3036 ft 168 kts 333°
2026-05-08 13:28 31.70595 130.78490 2814 ft 158 kts 331°
2026-05-08 13:28 31.71535 130.77852 2608 ft 150 kts 331°
2026-05-08 13:29 31.72408 130.77264 2389 ft 139 kts 331°
2026-05-08 13:29 31.73212 130.76727 2219 ft 129 kts 330°
2026-05-08 13:29 31.73979 130.76211 2052 ft 126 kts 330°
2026-05-08 13:29 31.74744 130.75697 1880 ft 127 kts 330°
2026-05-08 13:30 31.75512 130.75197 1726 ft 126 kts 332°
2026-05-08 13:30 31.76290 130.74701 1519 ft 127 kts 329°
2026-05-08 13:30 31.77030 130.74156 1316 ft 124 kts 326°
2026-05-08 13:30 31.77789 130.73674 1152 ft 121 kts 330°
2026-05-08 13:31 31.78501 130.73184 1032 ft 118 kts 329°
2026-05-08 13:31 31.79197 130.72702 887 ft 115 kts 329°
2026-05-08 13:31 31.79776 130.72310 879 ft 63 kts 330°
2026-05-08 13:31 31.79987 130.72168 888 ft 12 kts 324°
2026-05-08 13:32 31.80019 130.72108 890 ft 13 kts 271°
2026-05-08 13:32 31.79991 130.72023 896 ft 5 kts 243°
2026-05-08 13:32 31.79986 130.72011 898 ft 3 kts 248°
2026-05-08 13:32 31.79998 130.71953 901 ft 6 kts 312°
2026-05-08 13:33 31.80030 130.71927 902 ft 4 kts 329°
2026-05-08 13:33 31.80062 130.71904 903 ft 5 kts 329°
2026-05-08 13:33 31.80089 130.71886 903 ft 4 kts 330°
2026-05-08 13:33 31.80134 130.71855 903 ft 11 kts 330°
2026-05-08 13:34 31.80200 130.71811 904 ft 10 kts 330°
2026-05-08 13:34 31.80261 130.71770 904 ft 10 kts 330°
2026-05-08 13:34 31.80320 130.71710 904 ft 11 kts 268°
2026-05-08 13:34 31.80282 130.71616 899 ft 14 kts 240°
2026-05-08 13:35 31.80265 130.71582 897 ft 0 kts 241°